Location: Izdebno
(52.6670°N, 16.2170°E)
Time: 06:14:19
(UTC+01:00)

SR - Visible Passes

Search period start: 30 January 2023 00:00
Search period end: 09 February 2023 00:00
Orbit: 581 x 870 km, 66.7° (Epoch: 29 January)

Date Brightness Start Highest point End Pass type
(mag) Time Alt. Az. Time Alt. Az. Time Alt. Az.
30 Jan ? 17:20:24 10° WSW 17:24:56 34° NW 17:29:10 10° NNE visible
30 Jan ? 19:05:23 10° NW 19:08:13 16° NNW 19:09:41 14° N visible
31 Jan ? 18:13:47 10° WNW 18:17:12 19° NNW 18:20:27 10° NNE visible
31 Jan ? 19:58:28 10° NNW 19:59:56 13° N 19:59:56 13° N visible
01 Feb ? 17:22:15 10° W 17:26:16 25° NNW 17:30:05 10° NNE visible
01 Feb ? 19:07:19 10° NW 19:09:49 14° N 19:10:50 13° N visible
02 Feb ? 18:15:51 10° NW 18:18:43 16° NNW 18:21:29 10° NNE visible
02 Feb ? 19:59:48 10° NNW 20:01:04 14° N 20:01:04 14° N visible
03 Feb ? 17:24:14 10° WNW 17:27:42 19° NNW 17:31:01 10° NNE visible
03 Feb ? 19:09:00 10° NNW 19:11:24 14° N 19:11:58 14° NNE visible
04 Feb ? 18:17:48 10° NW 18:20:17 14° N 18:22:41 10° NNE visible
04 Feb ? 20:00:55 10° NNW 20:02:12 15° N 20:02:12 15° N visible
05 Feb ? 17:26:17 10° NW 17:29:12 16° NNW 17:32:01 10° NNE visible
05 Feb ? 19:10:23 10° NNW 19:12:58 15° N 19:13:06 15° NNE visible
05 Feb ? 20:52:17 10° NNW 20:52:27 11° NNW 20:52:27 11° NNW visible
06 Feb ? 18:19:31 10° NNW 18:21:52 14° N 18:24:01 10° NNE visible
06 Feb ? 20:01:55 10° NNW 20:03:22 16° N 20:03:22 16° N visible
07 Feb ? 17:28:15 10° NW 17:30:45 14° N 17:33:11 10° NNE visible
07 Feb ? 19:11:31 10° NNW 19:14:17 17° NNE 19:14:17 17° NNE visible
07 Feb ? 20:53:14 10° NNW 20:53:38 12° NNW 20:53:38 12° NNW visible
08 Feb ? 18:20:55 10° NNW 18:23:26 14° N 18:25:13 12° NE visible
08 Feb ? 20:02:52 10° NNW 20:04:34 20° NNW 20:04:34 20° NNW visible
